Wind_Speed
7 7 6 7 7 7 7 7 8 9 9 9 9 9 9 9 9 8 9 9 9 8 8 8 8 8 9 9 9 9 10 10 10 9 9 9 8 9 9 9 9 8 8 8
8 7 7 7 7 7 7 8 8 8 9 9 9 9 8 9 10 10 10 10 10 10 9 8 8 9 9 9 10 10 10 10 10 10 9 9 9 9 9 9 8 8 8 8
9 8 8 8 8 8 8 8 8 9 8 9 9 9 8 9 10 11 10 10 10 10 10 9 9 9 9 10 10 11 11 11 10 11 10 9 9 10 10 9 9 8 9 9
9 9 8 9 8 8 8 8 8 8 8 9 10 10 8 9 11 11 11 11 11 10 10 10 10 10 10 10 11 11 11 11 11 11 10 10 10 11 11 10 10 10 10 10
9 10 9 9 9 9 9 9 8 9 9 9 9 10 9 10 11 13 12 11 11 11 11 10 10 10 11 11 11 12 12 12 11 11 11 11 11 11 11 11 11 11 10 11
11 11 11 10 10 10 9 9 9 8 9 9 9 10 11 10 12 13 13 12 12 12 12 12 11 11 11 12 12 12 12 12 12 11 11 11 12 12 12 12 12 12 12 12
11 12 11 11 11 10 10 10 9 9 9 9 10 12 12 12 13 14 15 14 13 13 13 13 12 12 12 12 12 13 12 12 12 12 12 12 12 12 12 13 13 13 14 14
12 12 12 12 12 12 11 10 9 9 9 10 11 12 13 13 14 15 15 14 14 14 14 14 13 13 13 13 13 13 13 13 12 12 12 12 12 12 13 13 14 14 14 15
13 13 13 13 13 13 12 11 11 11 11 11 12 12 14 14 15 16 15 15 15 15 14 14 14 14 13 13 13 13 13 13 13 13 13 13 13 13 13 14 14 14 14 14
14 14 14 15 14 13 13 13 12 12 12 12 13 14 14 14 17 17 16 15 15 15 15 14 14 14 14 14 14 14 14 13 14 14 14 14 14 14 14 14 14 14 14 14
14 15 15 16 15 14 14 14 14 14 14 14 13 14 14 16 17 18 17 16 16 15 16 16 14 14 15 15 15 14 14 14 14 14 15 15 15 15 15 15 15 16 16 16
16 16 16 17 15 14 15 14 14 15 15 15 15 15 14 17 18 19 18 18 17 16 16 16 16 15 15 15 15 15 15 15 15 15 15 16 16 16 16 16 16 17 17 17
17 18 18 17 17 16 16 15 15 17 17 17 17 17 15 16 17 19 19 19 18 17 17 16 16 16 16 16 16 16 16 16 16 16 16 16 16 17 17 17 17 17 17 18
20 19 19 18 17 18 18 17 17 18 18 18 17 18 17 18 19 20 20 19 18 18 17 17 17 17 16 16 16 17 17 17 17 17 17 17 17 17 17 17 17 17 18 17
21 20 20 20 20 20 20 20 19 19 19 19 17 18 19 19 19 20 20 19 19 18 18 18 18 17 17 17 18 18 18 18 18 18 18 18 18 18 18 18 18 18 18 19
22 22 21 21 21 21 21 20 20 20 20 20 19 19 19 19 19 20 21 20 20 19 19 19 18 18 18 18 18 19 19 19 19 19 19 19 20 20 20 20 19 20 20 20
23 23 23 22 21 22 22 20 21 21 21 21 21 20 20 20 20 21 22 22 21 20 20 20 20 19 19 19 19 19 19 19 19 19 19 19 19 20 20 20 20 20 20 20
23 23 24 23 23 24 21 21 21 21 21 21 21 22 22 23 22 23 23 22 22 21 21 21 20 20 20 20 20 20 20 19 20 19 19 19 19 19 20 20 20 21 21 21
24 24 25 25 25 25 23 22 22 22 22 22 23 22 23 23 24 24 24 23 22 22 22 22 21 21 21 21 21 21 21 21 21 20 20 20 20 20 21 21 21 21 22 22
26 26 27 27 27 26 23 23 24 24 24 24 23 23 24 24 24 25 25 24 23 23 22 22 22 22 22 22 22 22 22 22 21 20 21 21 21 21 22 22 22 22 22 22
28 28 29 28 29 28 26 25 25 25 25 25 25 25 24 24 25 26 25 25 24 24 23 23 24 23 23 23 23 23 23 22 22 22 22 22 22 23 23 23 23 23 23 23
30 30 30 30 30 29 28 27 28 28 28 27 27 27 27 27 27 27 27 27 27 26 25 25 25 25 25 25 25 24 24 24 24 24 23 23 24 24 24 24 24 24 24 25
30 30 31 30 30 30 29 30 30 29 29 30 29 29 29 29 28 28 28 28 28 28 28 28 28 27 27 27 26 26 25 26 26 25 25 25 25 25 25 25 25 25 25 25
32 31 32 33 32 32 31 30 32 32 32 32 32 31 31 30 30 30 30 30 30 30 30 30 30 29 29 28 28 28 27 27 27 26 25 25 25 25 25 25 25 26 26 25
34 34 34 35 34 34 33 33 33 34 34 33 33 33 32 32 32 32 32 32 32 32 32 32 32 31 31 30 30 29 29 28 28 27 27 27 27 27 27 27 27 27 27 27
36 36 36 37 36 37 37 36 36 36 35 35 35 34 34 33 33 34 34 33 33 33 33 33 33 32 32 31 30 30 30 29 29 29 30 29 29 29 29 28 29 29 29 28
Wind_Direction
291 294 299 301 300 298 299 298 299 309 319 318 321 323 323 320 321 319 319 319 315 312 310 310 311 312 314 315 315 316 317 317 312 306 304 304 305 302 298 296 292 287 286 286
287 288 292 292 292 295 296 296 297 302 309 314 316 319 321 321 320 316 316 316 316 313 310 308 311 312 313 313 314 313 314 314 311 309 307 301 301 304 304 302 291 283 284 287
277 281 282 286 290 292 292 295 297 301 305 310 313 316 317 317 315 313 311 312 312 312 312 310 311 311 312 311 312 313 313 313 308 307 306 301 299 300 301 298 292 285 282 283
272 274 276 280 284 287 290 295 296 301 307 314 312 312 319 316 314 312 312 312 310 310 310 309 309 310 312 311 310 310 312 313 309 307 305 301 301 299 296 294 290 287 284 283
270 271 274 278 281 283 287 292 296 300 300 304 309 309 312 312 311 311 315 312 309 307 308 308 308 309 311 312 309 309 310 310 307 305 303 301 299 297 296 294 291 290 287 287
269 270 273 276 278 281 284 287 291 295 297 299 303 302 303 306 304 307 311 309 307 304 305 306 306 306 308 310 309 306 307 306 305 304 303 300 298 295 293 291 291 291 291 289
266 268 270 273 276 277 277 281 288 293 296 298 297 294 298 298 300 305 307 305 304 300 299 300 301 302 303 304 305 304 302 303 303 303 303 301 298 295 293 291 289 289 289 288
269 270 272 274 275 275 273 272 277 285 286 288 288 288 298 302 303 303 302 301 301 300 299 298 298 300 299 300 301 301 298 299 299 300 300 299 299 298 296 293 290 288 287 286
269 273 277 276 274 274 272 270 272 270 272 276 278 281 289 299 299 300 301 301 302 302 301 302 299 299 299 300 300 298 298 297 297 299 299 299 299 297 296 295 293 290 287 286
262 267 272 277 275 274 271 270 270 271 274 277 277 277 285 294 296 298 299 299 301 302 302 301 299 297 298 300 299 297 295 295 295 296 299 301 299 296 294 294 293 292 288 286
259 266 271 274 276 277 270 265 266 269 268 273 275 274 283 290 294 295 297 298 299 299 300 302 300 298 298 299 299 298 297 296 295 296 297 298 298 297 296 294 294 293 289 286
258 264 270 272 274 275 271 268 267 267 269 270 276 276 279 285 291 296 297 296 298 299 299 301 300 299 298 298 296 296 296 295 295 295 295 295 296 295 295 294 293 292 291 289
261 263 267 270 270 271 272 266 267 266 266 269 274 281 281 284 289 292 294 294 296 298 297 298 298 297 297 296 296 297 297 296 294 295 295 294 295 296 296 294 292 291 291 290
264 265 266 267 268 272 273 268 266 265 267 268 270 277 280 282 285 288 291 293 294 295 296 297 296 296 295 295 296 298 298 296 293 293 294 293 294 294 295 294 292 291 291 289
264 265 266 263 263 264 268 271 273 270 269 269 270 273 277 279 284 286 288 290 291 293 294 295 295 294 294 294 296 298 298 296 294 293 294 293 293 293 292 292 291 288 288 287
263 264 265 265 263 263 266 269 271 272 270 271 273 273 273 275 279 284 286 289 289 290 293 293 293 293 292 293 295 297 296 295 294 293 294 294 294 292 291 290 289 288 288 288
262 263 263 264 263 264 266 270 272 272 269 270 272 271 271 273 277 282 285 286 287 288 291 291 292 293 293 293 295 297 296 295 294 295 296 296 296 294 292 291 289 289 288 287
261 261 263 264 262 264 272 273 271 272 271 272 273 271 272 274 277 281 284 284 286 288 289 290 290 290 291 292 294 295 295 294 294 294 295 295 296 295 294 293 292 290 288 285
259 260 261 263 264 266 267 269 270 273 273 273 273 272 272 274 275 278 281 283 285 287 288 288 288 288 289 290 292 292 292 293 292 292 294 295 295 294 293 292 291 290 289 286
258 259 261 262 265 268 270 270 270 272 272 272 275 274 273 274 274 277 280 282 283 284 285 285 286 287 288 289 289 290 291 291 291 291 292 294 295 296 295 293 291 290 289 287
259 259 260 261 263 265 269 270 270 270 273 273 274 275 275 275 275 276 279 281 281 282 283 283 284 285 286 287 287 288 289 289 289 289 290 293 295 296 296 295 292 290 289 287
262 262 261 262 263 264 267 268 268 269 270 271 273 275 275 274 275 276 278 279 279 280 280 281 282 283 285 285 285 285 286 287 287 287 288 289 292 294 295 295 293 291 289 287
260 262 263 264 265 266 267 267 268 268 269 270 271 271 272 273 274 275 276 276 277 278 278 279 280 282 282 283 283 283 283 285 286 286 287 288 289 291 293 294 293 292 290 288
260 261 262 263 264 264 264 265 266 268 269 270 271 271 272 273 273 274 275 275 276 277 277 278 279 279 280 280 281 282 283 283 285 286 286 287 288 289 291 292 293 292 290 289
259 260 260 262 263 264 264 264 265 267 268 268 269 271 273 273 273 273 273 273 274 275 276 277 277 277 278 278 278 279 280 281 283 284 285 286 287 288 288 289 291 292 290 288
259 259 260 261 263 263 263 264 265 267 268 269 270 270 272 272 272 272 273 273 274 275 275 275 275 275 275 276 276 276 277 278 280 282 283 285 286 285 286 287 288 289 289 289
Height
5865 5866 5865 5865 5865 5864 5864 5863 5863 5862 5861 5861 5860 5859 5859 5858 5857 5856 5855 5855 5854 5853 5853 5852 5851 5850 5849 5849 5848 5847 5846 5845 5844 5843 5843 5842 5842 5841 5841 5840 5840 5840 5840 5840
5864 5864 5864 5863 5863 5863 5863 5862 5862 5861 5860 5860 5859 5858 5858 5857 5856 5855 5854 5854 5853 5852 5851 5851 5850 5849 5848 5847 5846 5846 5845 5844 5843 5842 5841 5841 5840 5840 5839 5839 5838 5838 5838 5838
5861 5863 5862 5862 5862 5862 5861 5861 5860 5860 5859 5858 5858 5857 5857 5856 5855 5854 5853 5852 5852 5851 5850 5849 5849 5848 5847 5846 5845 5844 5843 5842 5841 5841 5840 5839 5839 5838 5838 5837 5837 5837 5836 5836
5859 5860 5860 5860 5860 5860 5859 5859 5859 5858 5858 5857 5857 5856 5855 5854 5854 5853 5852 5851 5850 5849 5848 5848 5847 5846 5845 5844 5843 5842 5841 5840 5839 5838 5838 5837 5837 5836 5836 5835 5835 5835 5834 5834
5857 5857 5858 5858 5858 5858 5858 5857 5857 5857 5856 5856 5855 5855 5855 5853 5852 5851 5850 5849 5848 5848 5847 5846 5845 5844 5843 5842 5841 5840 5839 5838 5837 5836 5836 5835 5834 5834 5833 5833 5833 5833 5832 5832
5854 5855 5855 5856 5856 5856 5855 5856 5855 5855 5854 5854 5854 5854 5853 5852 5851 5850 5849 5848 5847 5846 5845 5844 5843 5842 5841 5840 5839 5838 5837 5836 5835 5834 5833 5833 5832 5831 5831 5830 5830 5830 5830 5829
5852 5852 5852 5853 5853 5853 5854 5854 5853 5852 5852 5853 5853 5852 5852 5850 5849 5848 5847 5846 5845 5844 5843 5842 5841 5840 5839 5838 5837 5836 5835 5834 5833 5832 5831 5830 5830 5829 5828 5828 5827 5827 5827 5826
5849 5850 5850 5850 5850 5850 5851 5851 5852 5852 5851 5851 5850 5849 5850 5848 5847 5846 5845 5844 5843 5841 5840 5840 5839 5838 5837 5835 5834 5833 5832 5831 5830 5830 5829 5828 5827 5826 5825 5825 5824 5824 5823 5823
5845 5847 5847 5847 5847 5847 5847 5847 5848 5848 5848 5848 5848 5848 5847 5845 5845 5843 5842 5841 5840 5839 5838 5837 5836 5835 5834 5832 5831 5830 5829 5828 5828 5827 5826 5825 5824 5823 5822 5822 5821 5820 5820 5819
5842 5843 5844 5843 5844 5844 5845 5845 5845 5845 5845 5845 5846 5845 5844 5843 5842 5841 5840 5838 5837 5836 5835 5834 5833 5831 5831 5829 5828 5827 5826 5825 5825 5824 5823 5822 5821 5820 5819 5818 5817 5817 5816 5816
5839 5840 5840 5840 5840 5840 5841 5841 5841 5841 5842 5842 5842 5844 5841 5840 5839 5838 5836 5835 5834 5833 5831 5830 5829 5828 5827 5826 5825 5824 5823 5822 5821 5821 5820 5819 5818 5817 5816 5815 5814 5813 5813 5812
5835 5836 5836 5836 5836 5836 5836 5836 5837 5838 5838 5838 5838 5841 5838 5837 5835 5834 5833 5832 5830 5829 5828 5827 5826 5825 5824 5823 5822 5821 5820 5819 5818 5817 5816 5815 5814 5813 5812 5811 5810 5809 5808 5808
5831 5832 5832 5832 5834 5833 5832 5833 5833 5834 5834 5834 5835 5837 5834 5833 5832 5831 5829 5828 5827 5826 5825 5824 5823 5822 5821 5819 5818 5817 5816 5815 5814 5813 5812 5811 5810 5809 5808 5806 5805 5804 5804 5803
5826 5827 5828 5829 5828 5828 5828 5828 5829 5830 5830 5830 5831 5831 5830 5829 5828 5827 5826 5825 5823 5822 5821 5820 5819 5818 5817 5816 5814 5813 5812 5811 5810 5809 5808 5807 5806 5805 5803 5802 5801 5800 5799 5798
5821 5822 5823 5823 5824 5823 5823 5824 5824 5825 5826 5826 5826 5826 5826 5824 5823 5823 5822 5821 5820 5819 5817 5816 5815 5814 5813 5812 5811 5809 5808 5807 5806 5804 5803 5802 5801 5800 5799 5798 5797 5796 5795 5794
5816 5817 5817 5818 5819 5818 5819 5820 5820 5820 5821 5821 5821 5821 5821 5820 5819 5818 5817 5816 5816 5815 5813 5812 5811 5810 5809 5807 5806 5805 5804 5802 5801 5800 5798 5797 5796 5795 5794 5793 5791 5790 5789 5788
5810 5811 5811 5812 5813 5812 5814 5815 5815 5816 5816 5816 5816 5817 5815 5815 5813 5813 5813 5812 5811 5810 5809 5808 5807 5805 5804 5803 5802 5800 5799 5797 5796 5795 5794 5792 5791 5789 5788 5787 5786 5785 5784 5783
5805 5805 5805 5806 5808 5807 5812 5810 5810 5810 5810 5810 5810 5810 5810 5810 5809 5808 5808 5807 5806 5805 5804 5803 5802 5801 5799 5798 5797 5795 5794 5793 5792 5790 5789 5787 5786 5784 5783 5782 5780 5779 5778 5777
5799 5800 5800 5800 5800 5801 5804 5805 5804 5805 5805 5805 5804 5805 5804 5804 5803 5802 5802 5801 5801 5800 5799 5798 5797 5796 5794 5793 5792 5790 5789 5788 5786 5785 5784 5782 5780 5779 5777 5776 5775 5773 5772 5771
5793 5793 5794 5794 5794 5795 5799 5799 5798 5800 5799 5798 5798 5798 5798 5798 5797 5797 5796 5795 5795 5794 5793 5792 5791 5790 5789 5788 5786 5785 5784 5782 5781 5780 5778 5777 5775 5773 5771 5770 5769 5767 5766 5765
5786 5787 5787 5788 5788 5789 5792 5792 5792 5793 5792 5791 5791 5791 5791 5791 5791 5790 5789 5789 5788 5787 5787 5786 5785 5784 5783 5781 5780 5779 5778 5776 5775 5774 5772 5771 5769 5767 5766 5764 5762 5761 5760 5759
5778 5779 5780 5781 5781 5784 5784 5784 5785 5784 5783 5783 5783 5784 5784 5784 5783 5783 5783 5782 5781 5781 5780 5779 5778 5777 5776 5775 5773 5772 5771 5770 5769 5768 5766 5765 5763 5761 5760 5758 5756 5755 5753 5752
5771 5772 5772 5774 5776 5776 5776 5776 5776 5776 5776 5775 5775 5776 5776 5776 5776 5775 5775 5774 5774 5773 5772 5771 5770 5769 5768 5767 5766 5765 5764 5763 5762 5761 5759 5758 5756 5755 5753 5752 5750 5748 5747 5745
5762 5763 5764 5765 5766 5767 5767 5767 5767 5767 5767 5767 5767 5767 5767 5767 5767 5767 5766 5766 5765 5765 5764 5763 5762 5761 5760 5759 5758 5757 5757 5755 5754 5753 5752 5751 5750 5748 5747 5745 5743 5742 5740 5738
5753 5754 5754 5755 5757 5757 5758 5757 5757 5758 5758 5758 5758 5758 5758 5758 5758 5758 5757 5757 5756 5755 5755 5754 5753 5753 5752 5751 5750 5749 5748 5747 5746 5746 5745 5743 5742 5741 5739 5738 5736 5734 5733 5731
5742 5743 5744 5745 5747 5746 5747 5748 5748 5748 5748 5748 5748 5749 5749 5748 5748 5747 5747 5747 5746 5746 5745 5744 5744 5743 5742 5742 5741 5740 5740 5739 5738 5737 5736 5735 5734 5733 5731 5730 5729 5726 5725 5723